FW2998 Weather Reports


time (UTC)temp
F
wind
direction
speed
knots
gust
knots
rain 1hr
in
rain 24hr
in
rain mn
in
humidity
%
barometer
mb
20260506051019 64 0 0.0 0.9 0.00 0.00 0.00 75 1016.1
20260506050520 65 0 0.0 0.9 0.00 0.00 0.00 74 1016.1
20260506045018 65 0 0.0 1.7 0.00 0.01 0.00 74 1016.2
20260506044550 65 0 0.0 1.7 0.00 0.01 0.00 74 1016.3
20260506044019 65 0 0.0 1.7 0.00 0.01 0.00 73 1016.5
20260506043519 66 0 0.0 0.9 0.00 0.01 0.00 73 1016.3
20260506043033 66 0 0.0 2.6 0.00 0.01 0.00 73 1016.4
20260506042520 66 0 0.0 2.6 0.00 0.01 0.00 73 1016.3
20260506042020 66 0 0.0 0.9 0.00 0.01 0.00 72 1016.5
20260506041540 66 0 0.0 0.9 0.00 0.01 0.00 71 1016.5
20260506041019 66 0 0.0 0.0 0.00 0.01 0.00 71 1016.5
20260506040519 66 0 0.0 0.0 0.00 0.01 0.00 71 1016.6
20260506040043 67 0 0.0 0.9 0.00 0.01 0.00 70 1016.6
20260506035519 67 0 0.0 0.9 0.00 0.01 0.01 70 1016.5
20260506035019 67 0 0.0 0.9 0.00 0.01 0.01 70 1016.5
20260506034536 67 0 0.0 0.9 0.00 0.01 0.01 69 1016.5
20260506034020 67 0 0.0 0.9 0.00 0.01 0.01 69 1016.5
20260506033519 67 0 0.0 0.9 0.00 0.01 0.01 69 1016.5
20260506033036 67 0 0.0 0.9 0.00 0.01 0.01 68 1016.4
20260506032522 68 0 0.0 2.6 0.00 0.01 0.01 68 1016.4
20260506032020 68 0 0.0 2.6 0.00 0.01 0.01 68 1016.4
20260506031553 68 0 0.0 2.6 0.00 0.01 0.01 67 1016.2
20260506031020 68 0 0.0 1.7 0.00 0.01 0.01 66 1016.2
20260506030519 68 146 0.0 6.1 0.00 0.01 0.01 66 1016.2
20260506030056 68 0 0.0 6.1 0.00 0.01 0.01 66 1016.2
20260506025523 69 115 0.0 2.6 0.00 0.01 0.01 65 1016.1
20260506025019 69 0 0.0 2.6 0.00 0.01 0.01 65 1016.1
20260506024540 69 59 0.0 1.7 0.00 0.01 0.01 64 1016.2
20260506024023 69 0 0.0 1.7 0.00 0.01 0.01 63 1016.2
20260506023519 69 0 0.0 1.7 0.00 0.01 0.01 63 1016.2
20260506023038 70 0 0.0 2.6 0.00 0.01 0.01 62 1016.3
20260506022522 70 0 0.0 5.2 0.00 0.01 0.01 62 1016.4
20260506022022 70 0 0.9 5.2 0.00 0.01 0.01 62 1016.3
20260506021537 70 84 0.0 1.7 0.00 0.01 0.01 62 1016.4
20260506021019 70 0 0.0 2.6 0.00 0.01 0.01 61 1016.3
20260506020525 71 0 0.0 2.6 0.00 0.01 0.01 61 1016.3
20260506020036 71 0 0.0 2.6 0.00 0.01 0.01 61 1016.3
20260506015523 71 0 0.0 2.6 0.00 0.01 0.01 61 1016.1
20260506015022 71 0 0.0 1.7 0.00 0.01 0.01 60 1016.1
20260506014537 72 0 0.0 1.7 0.00 0.01 0.01 59 1015.9
20260506014019 72 0 0.0 1.7 0.00 0.01 0.01 59 1015.9
20260506013519 72 0 0.0 1.7 0.00 0.01 0.01 59 1015.8
20260506013035 72 0 0.0 1.7 0.00 0.01 0.01 59 1015.9
20260506012523 72 0 0.0 2.6 0.00 0.01 0.01 59 1015.8
20260506012019 72 0 0.0 2.6 0.00 0.01 0.01 58 1015.7
20260506011539 73 0 0.0 2.6 0.00 0.01 0.01 58 1015.6
20260506011022 73 0 0.0 2.6 0.00 0.01 0.01 57 1015.5
20260506010522 73 0 0.0 2.6 0.00 0.01 0.01 57 1015.3
20260506010037 73 0 0.0 0.9 0.00 0.01 0.01 56 1015.2
20260506005520 73 0 0.0 0.9 0.00 0.01 0.01 55 1014.8
20260506005022 74 0 0.0 0.9 0.00 0.01 0.01 54 1014.6
20260506004604 74 0 0.0 0.9 0.00 0.01 0.01 54 1014.7
20260506004022 74 0 0.0 0.0 0.00 0.01 0.01 52 1014.6
20260506003519 75 0 0.0 0.0 0.00 0.01 0.01 51 1014.6
20260506003037 75 0 0.0 1.7 0.00 0.01 0.01 49 1014.5
20260506002522 75 0 0.0 1.7 0.00 0.01 0.01 48 1014.4
20260506002022 76 0 0.0 0.0 0.00 0.01 0.01 46 1014.4
20260506001536 76 0 0.0 0.0 0.00 0.01 0.01 45 1014.4
20260506001020 77 0 0.0 0.0 0.00 0.01 0.01 45 1014.3
20260506000520 77 0 0.0 0.0 0.00 0.01 0.01 44 1014.3
20260506000033 78 0 0.0 0.0 0.00 0.01 0.01 44 1014.3
20260505235519 78 0 0.0 0.0 0.00 0.01 0.01 44 1014.3
20260505235023 78 0 0.0 0.0 0.00 0.01 0.01 43 1014.4
20260505234603 78 0 0.0 0.0 0.00 0.01 0.01 42 1014.3
20260505234023 79 0 0.0 0.9 0.00 0.01 0.01 42 1014.3
20260505233520 79 0 0.0 2.6 0.00 0.01 0.01 42 1014.2
20260505233036 79 0 0.0 2.6 0.00 0.01 0.01 41 1014.2
20260505232522 79 0 0.0 2.6 0.00 0.01 0.01 41 1014.3
20260505232023 79 0 0.0 2.6 0.00 0.01 0.01 40 1014.4
20260505231538 80 0 0.0 2.6 0.00 0.01 0.01 40 1014.4
20260505231021 80 0 0.0 2.6 0.00 0.01 0.01 41 1014.3
20260505230521 80 0 0.0 7.8 0.00 0.01 0.01 40 1014.4
20260505230036 81 0 0.0 7.8 0.00 0.01 0.01 39 1014.4
20260505225519 81 0 0.0 0.9 0.00 0.01 0.01 39 1014.4
20260505225019 81 0 0.0 2.6 0.00 0.01 0.01 39 1014.5
20260505224535 81 0 0.0 2.6 0.00 0.01 0.01 38 1014.5
20260505224021 82 12 0.0 0.9 0.00 0.01 0.01 38 1014.3
20260505223519 82 0 0.0 0.9 0.00 0.01 0.01 38 1014.3
20260505223040 82 0 0.0 1.7 0.00 0.01 0.01 38 1014.4
20260505222521 82 0 0.0 1.7 0.00 0.01 0.01 37 1014.4
20260505222023 82 0 0.0 3.5 0.00 0.01 0.01 38 1014.4
20260505221553 82 0 0.0 7.8 0.00 0.01 0.01 37 1014.4
20260505221023 82 87 0.9 7.8 0.00 0.01 0.01 37 1014.3
20260505220520 82 84 0.0 6.1 0.00 0.01 0.01 37 1014.4
20260505220037 82 0 0.0 6.1 0.00 0.01 0.01 38 1014.5
20260505215520 82 119 0.9 6.1 0.00 0.01 0.01 38 1014.4
20260505215021 82 128 0.0 3.5 0.00 0.01 0.01 38 1014.6
20260505214542 82 0 0.0 3.5 0.00 0.01 0.01 38 1014.6
20260505214020 82 0 0.0 2.6 0.00 0.01 0.01 38 1014.6
20260505213519 83 0 0.0 2.6 0.00 0.01 0.01 37 1014.7
20260505213035 83 0 0.0 2.6 0.00 0.01 0.01 38 1014.7
20260505212518 83 114 0.0 7.8 0.00 0.01 0.01 38 1014.7
20260505212023 83 0 0.0 7.8 0.00 0.01 0.01 38 1014.7
20260505211536 83 202 0.0 7.8 0.00 0.01 0.01 37 1014.8
20260505211033 83 0 1.7 7.8 0.00 0.01 0.01 38 1014.7
20260505210521 83 79 0.0 3.5 0.00 0.01 0.01 37 1014.8
20260505210033 83 263 0.0 3.5 0.00 0.01 0.01 36 1014.9
20260505205522 83 0 0.0 6.1 0.00 0.01 0.01 37 1015.0
20260505205021 83 0 0.0 6.1 0.00 0.01 0.01 37 1014.8
20260505204539 83 252 0.0 7.0 0.00 0.01 0.01 38 1014.9
20260505204021 83 0 0.9 7.0 0.00 0.01 0.01 37 1014.9
20260505203521 83 0 0.0 7.0 0.00 0.01 0.01 37 1015.0
20260505203037 83 0 0.0 8.7 0.00 0.01 0.01 38 1014.9
20260505202520 84 0 0.9 8.7 0.00 0.01 0.01 37 1015.1
20260505202021 84 263 1.7 7.0 0.00 0.01 0.01 36 1015.1
20260505201535 85 0 0.0 6.1 0.00 0.01 0.01 36 1015.2
20260505201022 85 0 0.0 7.8 0.00 0.01 0.01 36 1015.2
20260505200520 85 0 0.9 7.8 0.00 0.01 0.01 37 1015.2
20260505200035 85 0 1.7 7.8 0.00 0.01 0.01 37 1015.2
20260505195519 85 0 0.0 4.3 0.00 0.01 0.01 38 1015.3
20260505195022 85 0 0.0 5.2 0.00 0.01 0.01 40 1015.3
20260505194535 85 105 0.9 5.2 0.00 0.01 0.01 37 1015.5
20260505194019 85 58 0.9 5.2 0.00 0.01 0.01 36 1015.5
20260505193521 85 0 0.0 3.5 0.00 0.01 0.01 37 1015.6
20260505193038 85 98 0.0 5.2 0.00 0.01 0.01 38 1015.6
20260505192522 85 111 0.9 6.1 0.00 0.01 0.01 36 1015.7
20260505192021 86 109 0.0 6.1 0.00 0.01 0.01 36 1015.7
20260505191536 86 124 1.7 6.1 0.00 0.01 0.01 35 1015.8
20260505191021 86 0 0.9 6.1 0.00 0.01 0.01 37 1016.0
20260505190523 86 0 0.9 4.3 0.00 0.01 0.01 36 1016.1
20260505190044 86 268 0.0 4.3 0.00 0.01 0.01 36 1016.2
20260505185521 86 231 0.0 3.5 0.00 0.01 0.01 38 1016.3
20260505185022 85 288 0.9 3.5 0.00 0.01 0.01 37 1016.5
20260505184536 86 94 0.0 3.5 0.00 0.01 0.01 39 1016.7
20260505184021 85 240 0.0 7.8 0.00 0.01 0.01 39 1016.8
20260505183518 85 244 0.0 7.8 0.00 0.01 0.01 39 1016.8
20260505183043 85 0 0.9 7.8 0.00 0.01 0.01 37 1016.8
20260505182521 85 0 0.0 6.1 0.00 0.01 0.01 38 1016.8
20260505182019 84 263 1.7 6.1 0.00 0.01 0.01 39 1016.8
20260505181532 84 269 0.0 5.2 0.00 0.01 0.01 41 1016.8
20260505181023 83 0 0.0 5.2 0.00 0.01 0.01 43 1016.9
20260505180520 83 77 0.9 8.7 0.00 0.01 0.01 41 1016.7
20260505180037 83 0 0.9 8.7 0.00 0.01 0.01 41 1016.8
20260505175520 82 0 0.9 7.0 0.00 0.01 0.01 41 1016.7
20260505175019 82 0 0.0 7.0 0.00 0.01 0.01 43 1016.6
20260505174536 82 140 1.7 7.0 0.00 0.01 0.01 41 1016.6
20260505174022 82 294 0.0 7.0 0.00 0.01 0.01 42 1016.7
20260505173519 82 0 0.0 3.5 0.00 0.01 0.01 41 1016.8
20260505173043 82 0 0.0 3.5 0.00 0.01 0.01 41 1016.9
20260505172524 82 0 0.0 5.2 0.00 0.01 0.01 44 1016.8
20260505172020 82 231 0.0 6.1 0.00 0.01 0.01 43 1017.0
20260505171536 82 0 0.0 6.1 0.00 0.01 0.01 42 1017.1
20260505171025 81 0 0.9 6.1 0.00 0.01 0.01 46 1017.1
20260505170521 81 92 0.0 6.1 0.00 0.01 0.01 46 1017.3
20260505170035 81 0 0.0 5.2 0.00 0.01 0.01 46 1017.5
20260505165519 82 0 0.9 5.2 0.00 0.01 0.01 43 1017.4
20260505165019 82 0 0.0 5.2 0.00 0.01 0.01 46 1017.5
20260505164538 82 87 1.7 5.2 0.00 0.01 0.01 42 1017.6
20260505164021 82 93 0.0 3.5 0.00 0.01 0.01 44 1017.7
20260505163519 82 0 0.9 3.5 0.00 0.01 0.01 45 1017.6
20260505163035 82 0 0.0 3.5 0.00 0.01 0.01 48 1017.6
20260505162521 82 0 0.0 4.3 0.00 0.01 0.01 45 1017.8
20260505162020 82 278 0.0 4.3 0.00 0.01 0.01 48 1017.8
20260505161539 81 0 0.0 5.2 0.00 0.01 0.01 49 1017.8
20260505161019 81 0 0.9 5.2 0.00 0.01 0.01 49 1018.0
20260505160520 81 0 0.9 4.3 0.00 0.01 0.01 49 1018.1
20260505153045 79 0 0.0 4.3 0.00 0.01 0.01 54 1018.1
20260505152520 79 107 0.0 4.3 0.00 0.01 0.01 54 1018.1
20260505152019 79 303 0.0 4.3 0.00 0.01 0.01 53 1018.1
20260505151541 79 0 0.0 4.3 0.00 0.01 0.01 54 1018.1
20260505151019 79 0 0.9 5.2 0.00 0.01 0.01 53 1018.1
20260505150519 79 0 0.0 5.2 0.00 0.01 0.01 55 1018.0
20260505140520 74 0 0.0 1.7 0.00 0.01 0.01 65 1018.0
20260505125021 60 0 0.0 0.9 0.00 0.01 0.01 92 1017.9
20260505124538 59 0 0.0 1.7 0.00 0.01 0.01 92 1017.9
20260505124022 58 0 0.0 1.7 0.00 0.01 0.01 93 1017.8
20260505123525 57 0 0.0 0.9 0.00 0.01 0.01 93 1017.8
20260505123039 57 0 0.0 1.7 0.00 0.01 0.01 92 1017.8
20260505122521 56 0 0.0 1.7 0.00 0.01 0.01 93 1017.8
20260505122023 56 0 0.0 0.0 0.00 0.01 0.01 92 1017.8
20260505121540 55 0 0.0 0.0 0.00 0.01 0.01 92 1017.8
20260505121021 55 0 0.0 0.0 0.00 0.01 0.01 92 1017.9
20260505120518 55 0 0.0 0.0 0.00 0.01 0.01 92 1017.8
20260505120046 54 0 0.0 0.0 0.00 0.01 0.01 91 1017.8
20260505115520 54 0 0.0 0.0 0.00 0.01 0.01 91 1017.8
20260505115020 54 0 0.0 0.0 0.00 0.01 0.01 90 1017.8
20260505114535 53 0 0.0 0.0 0.00 0.01 0.01 90 1017.8
20260505114021 53 0 0.0 0.0 0.00 0.01 0.01 89 1017.7
20260505113521 53 0 0.0 0.0 0.00 0.01 0.01 89 1017.7
20260505113035 53 0 0.0 0.0 0.00 0.01 0.01 88 1017.7
20260505112522 53 0 0.0 0.0 0.00 0.01 0.01 88 1017.7
20260505112020 53 0 0.0 0.0 0.00 0.01 0.01 87 1017.7
20260505111538 53 0 0.0 0.0 0.00 0.01 0.01 87 1017.7
20260505111023 53 0 0.0 0.0 0.00 0.01 0.01 87 1017.7
20260505110518 53 0 0.0 0.0 0.00 0.01 0.01 87 1017.6
20260505102024 53 0 0.0 0.0 0.00 0.01 0.01 85 1017.1
20260505101541 54 0 0.0 0.0 0.00 0.01 0.01 85 1017.3
20260505101019 54 0 0.0 0.0 0.00 0.01 0.01 85 1017.1
20260505100521 54 0 0.0 0.0 0.00 0.01 0.01 85 1016.9
20260505100040 54 0 0.0 0.0 0.00 0.01 0.01 85 1016.8
20260505095519 54 0 0.0 0.0 0.00 0.01 0.01 85 1016.8
20260505095021 54 0 0.0 0.0 0.00 0.01 0.01 85 1016.9
20260505094536 54 0 0.0 0.0 0.00 0.01 0.01 85 1016.8
20260505094020 54 0 0.0 0.0 0.00 0.01 0.01 84 1016.8
20260505093523 54 0 0.0 0.0 0.00 0.01 0.01 84 1016.8
20260505093036 54 0 0.0 0.0 0.00 0.01 0.01 84 1016.8
20260505092521 54 0 0.0 0.0 0.00 0.01 0.01 84 1016.8
20260505092020 54 0 0.0 0.0 0.00 0.01 0.01 84 1016.7
20260505091538 55 0 0.0 0.0 0.00 0.01 0.01 84 1016.8
20260505091020 55 0 0.0 0.0 0.00 0.01 0.01 84 1016.8
20260505090518 55 0 0.0 0.0 0.00 0.01 0.01 84 1016.7
20260505090036 55 0 0.0 0.0 0.00 0.01 0.01 84 1016.8
20260505085522 55 0 0.0 0.0 0.00 0.01 0.01 84 1016.7
20260505085021 55 0 0.0 0.0 0.00 0.01 0.01 84 1016.8
20260505084543 55 0 0.0 0.0 0.00 0.01 0.01 83 1016.6
20260505084020 55 0 0.0 0.0 0.00 0.01 0.01 82 1016.6
20260505083520 55 0 0.0 0.0 0.00 0.01 0.01 82 1016.6
20260505083037 55 0 0.0 0.0 0.00 0.01 0.01 82 1016.7
20260505082519 55 0 0.0 0.0 0.00 0.01 0.01 82 1016.6
20260505082021 55 0 0.0 0.0 0.00 0.01 0.01 81 1016.6
20260505081536 55 0 0.0 0.0 0.00 0.01 0.01 81 1016.6
20260505081018 56 0 0.0 0.0 0.00 0.01 0.01 81 1016.6
20260505080521 56 0 0.0 0.0 0.00 0.01 0.01 80 1016.5
20260505080037 56 0 0.0 0.0 0.00 0.01 0.01 80 1016.5
20260505075521 56 0 0.0 0.0 0.00 0.01 0.01 80 1016.4
20260505075023 56 0 0.0 0.0 0.00 0.01 0.01 80 1016.3
20260505074536 56 0 0.0 0.0 0.00 0.01 0.01 80 1016.3
20260505074020 56 0 0.0 0.0 0.00 0.01 0.01 80 1016.2
20260505073520 56 0 0.0 0.0 0.00 0.01 0.01 80 1016.2
20260505073043 56 0 0.0 0.0 0.00 0.01 0.01 80 1016.3
20260505072521 56 0 0.0 0.0 0.00 0.01 0.01 79 1016.4
20260505072020 56 0 0.0 0.0 0.00 0.01 0.01 79 1016.3
20260505071536 56 0 0.0 0.0 0.00 0.01 0.01 79 1016.3
20260505071020 57 0 0.0 0.0 0.00 0.01 0.01 79 1016.2
20260505070521 57 0 0.0 0.0 0.00 0.01 0.01 79 1016.2
20260505070045 57 0 0.0 0.0 0.00 0.01 0.01 78 1016.3
20260505065520 57 0 0.0 0.0 0.00 0.01 0.01 78 1016.3
20260505065021 57 0 0.0 0.0 0.00 0.01 0.01 78 1016.3
20260505064536 57 0 0.0 0.0 0.00 0.01 0.01 78 1016.4
20260505064020 57 0 0.0 0.0 0.00 0.01 0.01 78 1016.3
20260505063520 57 0 0.0 0.0 0.00 0.01 0.01 77 1016.3
20260505063036 57 0 0.0 0.0 0.00 0.01 0.01 76 1016.4
20260505062521 57 0 0.0 0.0 0.00 0.01 0.01 76 1016.4
20260505062020 58 0 0.0 0.0 0.00 0.01 0.01 76 1016.5
20260505061540 58 0 0.0 0.0 0.00 0.01 0.01 75 1016.6
20260505061020 58 0 0.0 0.0 0.00 0.01 0.01 75 1016.6
20260505060523 58 0 0.0 0.0 0.00 0.01 0.01 74 1016.7
20260505060035 58 0 0.0 0.0 0.00 0.01 0.01 74 1016.7